When you browse on this site, cookies collect data to enhance your experience and personalize the content and advertising you see.
Visit our Privacy Policy to learn more. By continuing to use the site, you agree to this use of cookies and data.
  • In Hungary
  • List of Countries
  • For 7 days
  • Water Temperature
  • Satellite Maps
  • Weather Map
  • News
  • Weather Widgets
  • user-avatar
    Login

    Hourly Weather Prilep

    Today, 16 January, Wednesday

    Time Temperature Precipitation Wind Pressure Humidity
    00:00 -11°C° 0 mm 1 mps 685 mmHg 80%
    01:00 -13°C° 0 mm 2 mps 685 mmHg 79%
    02:00 -13°C° 0 mm 2 mps 685 mmHg 78%
    03:00 -13°C° 0 mm 2 mps 685 mmHg 78%
    04:00 -13°C° 0 mm 2 mps 685 mmHg 77%
    05:00 -13°C° 0 mm 2 mps 685 mmHg 76%
    06:00 -13°C° 0 mm 2 mps 685 mmHg 76%
    07:00 -12°C° 0 mm 2 mps 685 mmHg 73%
    08:00 -9°C° 0 mm 2 mps 686 mmHg 75%
    09:00 -7°C° 0 mm 2 mps 686 mmHg 76%
    10:00 -5°C° 0 mm 2 mps 687 mmHg 78%
    11:00 -4°C° 0 mm 2 mps 687 mmHg 82%
    12:00 -2°C° 0 mm 2 mps 687 mmHg 85%
    13:00 -1°C° 0 mm 2 mps 687 mmHg 89%
    14:00 -2°C° 0 mm 2 mps 687 mmHg 87%
    15:00 -3°C° 0 mm 2 mps 687 mmHg 84%
    16:00 -3°C° 0 mm 2 mps 686 mmHg 82%
    17:00 -4°C° 0 mm 2 mps 687 mmHg 81%
    18:00 -5°C° 0 mm 2 mps 687 mmHg 81%
    19:00 -6°C° 0 mm 2 mps 687 mmHg 80%
    20:00 -6°C° 0 mm 2 mps 687 mmHg 80%
    21:00 -6°C° 0 mm 2 mps 687 mmHg 80%
    22:00 -7°C° 0 mm 2 mps 687 mmHg 80%
    23:00 -7°C° 0 mm 2 mps 687 mmHg 79%

    Tomorrow, 17 January, Thursday

    Time Temperature Precipitation Wind Pressure Humidity
    00:00 -7°C° 0 mm 2 mps 687 mmHg 78%
    01:00 -6°C° 0 mm 1 mps 687 mmHg 78%
    02:00 -6°C° 0 mm 1 mps 687 mmHg 77%
    03:00 -6°C° 0 mm 1 mps 686 mmHg 77%
    04:00 -6°C° 0 mm 1 mps 686 mmHg 76%
    05:00 -6°C° 0 mm 1 mps 686 mmHg 76%
    06:00 -6°C° 0 mm 1 mps 686 mmHg 76%
    07:00 -6°C° 0 mm 1 mps 686 mmHg 76%
    08:00 -3°C° 0 mm 1 mps 687 mmHg 79%
    09:00 -1°C° 0 mm 1 mps 687 mmHg 83%
    10:00 +1°C° 0 mm 1 mps 687 mmHg 87%
    11:00 +1°C° 0 mm 1 mps 687 mmHg 91%
    12:00 +2°C° 0 mm 1 mps 687 mmHg 95%
    13:00 +2°C° 0 mm 1 mps 687 mmHg 98%
    14:00 +1°C° 0 mm 1 mps 686 mmHg 96%
    15:00 +1°C° 0 mm 1 mps 686 mmHg 94%
    16:00 0°C° 0 mm 1 mps 686 mmHg 91%
    17:00 0°C° 0 mm 1 mps 686 mmHg 90%
    18:00 -1°C° 0 mm 1 mps 686 mmHg 89%
    19:00 -2°C° 0 mm 1 mps 686 mmHg 88%
    20:00 -2°C° 0 mm 1 mps 686 mmHg 85%
    21:00 -3°C° 0 mm 1 mps 686 mmHg 83%
    22:00 -3°C° 0 mm 1 mps 686 mmHg 80%
    23:00 -3°C° 0 mm 1 mps 686 mmHg 78%

    Day after tomorrow, 18 January, Friday

    Time Temperature Precipitation Wind Pressure Humidity
    00:00 -3°C° 0 mm 1 mps 686 mmHg 77%
    01:00 -3°C° 0 mm 1 mps 686 mmHg 75%
    02:00 -3°C° 0 mm 1 mps 685 mmHg 74%
    03:00 -3°C° 0 mm 1 mps 685 mmHg 74%
    04:00 -3°C° 0 mm 1 mps 685 mmHg 73%
    05:00 -3°C° 0 mm 1 mps 685 mmHg 74%
    06:00 -3°C° 0 mm 1 mps 685 mmHg 74%
    07:00 -2°C° 0 mm 1 mps 685 mmHg 74%
    08:00 -1°C° 0 mm 1 mps 686 mmHg 81%
    09:00 +1°C° 0 mm 1 mps 686 mmHg 88%
    10:00 +2°C° 0 mm 1 mps 686 mmHg 94%
    11:00 +2°C° 0 mm 1 mps 686 mmHg 96%
    12:00 +2°C° 0 mm 1 mps 686 mmHg 97%
    13:00 +3°C° 0 mm 1 mps 686 mmHg 98%
    14:00 +2°C° 0 mm 1 mps 686 mmHg 98%
    15:00 +1°C° 0 mm 0 mps 686 mmHg 98%
    16:00 +1°C° 0 mm 0 mps 686 mmHg 98%
    17:00 +1°C° 0 mm 0 mps 686 mmHg 96%
    18:00 +1°C° 0 mm 0 mps 687 mmHg 95%
    19:00 0°C° 0 mm 0 mps 687 mmHg 94%
    20:00 0°C° 0 mm 0 mps 687 mmHg 94%
    21:00 -1°C° 0 mm 0 mps 687 mmHg 93%
    22:00 -1°C° 0 mm 0 mps 688 mmHg 93%
    23:00 -2°C° 0 mm 0 mps 687 mmHg 92%

    19 January, Saturday

    Time Temperature Precipitation Wind Pressure Humidity
    00:00 -2°C° 0 mm 0 mps 687 mmHg 92%
    01:00 -2°C° 0 mm 0 mps 687 mmHg 92%
    02:00 -2°C° 0 mm 0 mps 687 mmHg 91%
    03:00 -2°C° 0 mm 0 mps 687 mmHg 91%
    04:00 -2°C° 0 mm 0 mps 686 mmHg 91%
    05:00 -2°C° 0 mm 0 mps 687 mmHg 90%
    06:00 -2°C° 0 mm 0 mps 687 mmHg 90%
    07:00 -1°C° 0 mm 1 mps 687 mmHg 89%
    08:00 -1°C° 0 mm 0 mps 687 mmHg 92%
    09:00 0°C° 0 mm 0 mps 687 mmHg 95%
    10:00 +1°C° 0 mm 0 mps 687 mmHg 98%
    11:00 +2°C° 0 mm 1 mps 687 mmHg 98%
    12:00 +2°C° 0 mm 1 mps 687 mmHg 98%
    13:00 +3°C° 0 mm 1 mps 686 mmHg 98%
    14:00 +2°C° 0 mm 1 mps 686 mmHg 98%
    15:00 +2°C° 0 mm 1 mps 686 mmHg 98%
    16:00 +2°C° 0 mm 1 mps 686 mmHg 97%
    17:00 +1°C° 0 mm 1 mps 686 mmHg 96%
    18:00 +1°C° 0 mm 1 mps 686 mmHg 94%
    19:00 +1°C° 0 mm 1 mps 686 mmHg 92%
    20:00 +1°C° 0 mm 1 mps 686 mmHg 92%
    21:00 +1°C° 0 mm 1 mps 686 mmHg 91%
    22:00 0°C° 0 mm 1 mps 686 mmHg 90%
    23:00 0°C° 0 mm 1 mps 686 mmHg 90%

    20 January, Sunday

    Time Temperature Precipitation Wind Pressure Humidity
    00:00 0°C° 0 mm 1 mps 685 mmHg 90%
    01:00 0°C° 0 mm 1 mps 685 mmHg 90%
    02:00 0°C° 0 mm 1 mps 685 mmHg 90%
    03:00 0°C° 0 mm 1 mps 685 mmHg 90%
    04:00 0°C° 0 mm 1 mps 684 mmHg 90%
    05:00 0°C° 0 mm 1 mps 684 mmHg 90%
    06:00 0°C° 0 mm 1 mps 684 mmHg 90%
    07:00 0°C° 0 mm 1 mps 684 mmHg 89%
    08:00 +1°C° 0 mm 1 mps 684 mmHg 92%
    09:00 +1°C° 0 mm 2 mps 685 mmHg 95%
    10:00 +1°C° 0 mm 2 mps 685 mmHg 98%
    11:00 +2°C° 0 mm 2 mps 684 mmHg 98%
    12:00 +2°C° 0 mm 2 mps 684 mmHg 98%
    13:00 +2°C° 0 mm 2 mps 684 mmHg 98%
    14:00 +2°C° 0 mm 2 mps 684 mmHg 97%
    15:00 +2°C° 0 mm 2 mps 683 mmHg 97%
    16:00 +2°C° 0 mm 1 mps 683 mmHg 97%
    17:00 +2°C° 0 mm 1 mps 683 mmHg 95%
    18:00 +1°C° 0 mm 1 mps 684 mmHg 93%
    19:00 +1°C° 0 mm 1 mps 684 mmHg 92%
    20:00 +1°C° 0 mm 1 mps 684 mmHg 91%
    21:00 +1°C° 0 mm 1 mps 684 mmHg 90%
    22:00 +1°C° 0 mm 1 mps 684 mmHg 89%
    23:00 +1°C° 0 mm 1 mps 684 mmHg 89%

    21 January, Monday

    Time Temperature Precipitation Wind Pressure Humidity
    00:00 0°C° 0 mm 1 mps 684 mmHg 89%
    01:00 0°C° 0 mm 1 mps 684 mmHg 89%
    02:00 0°C° 0 mm 1 mps 684 mmHg 88%
    03:00 0°C° 0 mm 1 mps 684 mmHg 88%
    04:00 0°C° 0 mm 1 mps 684 mmHg 87%
    05:00 0°C° 0 mm 1 mps 684 mmHg 87%
    06:00 0°C° 0 mm 1 mps 684 mmHg 87%
    07:00 -1°C° 0 mm 0 mps 684 mmHg 86%
    08:00 0°C° 0 mm 0 mps 684 mmHg 89%
    09:00 +1°C° 0 mm 0 mps 685 mmHg 91%
    10:00 +2°C° 0 mm 0 mps 685 mmHg 94%
    11:00 +2°C° 0 mm 0 mps 685 mmHg 94%
    12:00 +3°C° 0 mm 1 mps 685 mmHg 93%
    13:00 +4°C° 0 mm 1 mps 685 mmHg 93%
    14:00 +3°C° 0 mm 1 mps 685 mmHg 92%
    15:00 +3°C° 0 mm 1 mps 685 mmHg 92%
    16:00 +1°C° 0 mm 0 mps 685 mmHg 91%
    17:00 +1°C° 0 mm 0 mps 685 mmHg 91%
    18:00 0°C° 0 mm 0 mps 685 mmHg 91%
    19:00 0°C° 0 mm 0 mps 685 mmHg 91%
    20:00 0°C° 0 mm 0 mps 685 mmHg 91%
    21:00 0°C° 0 mm 1 mps 686 mmHg 91%
    22:00 0°C° 0 mm 1 mps 686 mmHg 91%
    23:00 0°C° 0 mm 1 mps 686 mmHg 91%
    Show more